Location: ????? ????
(37.9717°N, 23.4051°E)
Time: 11:05:44
(UTC+00:00)

USA 234 - Pass Details

Date: 18 April 2024
Orbit: 1099 x 1109 km, 123.0° (Epoch: 14 May)

Event Time Altitude Azimuth Distance (km) Brightness Sun altitude
Exits shadow 19:58:35 40° 216° (SW) 1,578 3.9 -30.0°
Maximum altitude 19:59:19 41° 232° (SW) 1,548 4.0 -30.1°
Drops below altitude 10° 20:05:25 10° 301° (WNW) 2,961 6.3 -30.9°
Sets 20:08:05 0° 309° (NW) 3,920 7.3 -31.2°
